Le nostre stazioni meteo in Italia

Pubblicità
Il mio iltempo24.it
Besancon, Francia (7288): Temperatura & dewpoint: 09.09.2019 21:00:00 - 15.09.2019 21:00:00 (CEST)Besancon, Francia (7288): Temperatura 5cm: 09.09.2019 21:00:00 - 15.09.2019 21:00:00 (CEST)Besancon, Francia (7288): Temperatura -20cm & Temperatura -100cm: 09.09.2019 21:00:00 - 15.09.2019 21:00:00 (CEST)Besancon, Francia (7288): velocità del vento & gusts: 09.09.2019 21:00:00 - 15.09.2019 21:00:00 (CEST)Besancon, Francia (7288): direzione del vento: 09.09.2019 21:00:00 - 15.09.2019 21:00:00 (CEST)Besancon, Francia (7288): reduced air pressure: 09.09.2019 21:00:00 - 15.09.2019 21:00:00 (CEST)Besancon, Francia (7288): ore di luce: 09.09.2019 21:00:00 - 15.09.2019 21:00:00 (CEST)Besancon, Francia (7288): precipitazioni: 09.09.2019 21:00:00 - 15.09.2019 21:00:00 (CEST)
Data & Tempo tt [°C] td [°C] tt 5cm [°C] tt -20cm [°C] tt -100cm [°C] ff [km/h] ff [kn] fx [km/h] fx [kn] dd ppp [hPa] sd [min] rr [mm]
15.09.2019 21:00:00 - - - - - - - - - - - - -
15.09.2019 20:00:00 24,2 13,4 17,9 20,0 18,1 0 0 5 3 N 1020,6 21 0,0
15.09.2019 19:00:00 27,9 12,7 26,1 19,8 18,1 2 1 11 6 N 1020,1 60 0,0
15.09.2019 18:00:00 28,9 12,3 32,3 19,7 18,1 6 3 17 9 SO 1020,2 60 0,0
15.09.2019 17:00:00 29,4 12,3 36,6 19,4 18,1 6 3 19 11 O 1020,7 60 0,0
15.09.2019 16:00:00 29,6 12,9 39,9 19,2 18,1 8 4 22 12 OSO 1021,3 60 0,0
15.09.2019 15:00:00 28,6 13,7 39,6 19,0 18,1 9 5 18 10 SO 1022,0 60 0,0
15.09.2019 14:00:00 27,3 12,5 39,4 18,9 18,1 11 6 20 11 SO 1023,0 60 0,0
15.09.2019 13:00:00 26,4 14,5 39,4 18,8 18,1 8 4 19 10 SO 1023,5 60 0,0
15.09.2019 12:00:00 25,1 15,7 35,7 18,7 18,1 9 5 17 9 SO 1024,1 60 0,0
15.09.2019 11:00:00 23,6 15,6 31,5 18,8 18,1 5 3 12 7 SO 1024,6 60 0,0
15.09.2019 10:00:00 19,8 15,2 15,1 18,9 18,1 0 0 7 4 N 1024,9 60 0,0
15.09.2019 09:00:00 15,7 15,2 10,8 19,0 18,1 0 0 3 2 N 1025,2 37 0,0
15.09.2019 08:00:00 14,6 14,0 9,7 19,1 18,1 2 1 4 2 NNE 1025,5 0 0,0
15.09.2019 07:00:00 14,8 14,2 9,9 19,1 18,1 0 0 6 4 N 1025,6 0 0,0
15.09.2019 06:00:00 15,2 14,4 10,2 19,2 18,1 0 0 0 0 N 1025,2 0 0,0
15.09.2019 05:00:00 16,0 15,2 11,4 19,3 18,1 0 0 2 1 N 1025,2 0 0,0
15.09.2019 04:00:00 16,3 15,3 11,9 19,4 18,1 0 0 4 2 N 1025,0 0 0,0
15.09.2019 03:00:00 16,7 15,6 12,4 19,4 18,1 0 0 4 2 N 1025,2 0 0,0
15.09.2019 02:00:00 17,0 15,5 12,7 19,5 18,1 0 0 4 2 N 1025,5 0 0,0
15.09.2019 01:00:00 17,5 15,7 13,2 19,6 18,1 0 0 8 4 N 1025,4 0 0,0
15.09.2019 00:00:00 18,2 15,8 13,7 19,6 18,1 0 0 6 4 N 1025,6 0 0,0
14.09.2019 23:00:00 18,6 15,8 13,9 19,6 18,1 2 1 9 5 NNE 1025,9 0 0,0
14.09.2019 22:00:00 19,4 15,7 14,2 19,7 18,1 2 1 6 3 NNE 1025,5 0 0,0
14.09.2019 21:00:00 20,5 15,5 15,1 19,6 18,1 3 2 9 5 NNE 1025,6 0 0,0
14.09.2019 20:00:00 23,4 14,9 17,8 19,5 18,1 0 0 10 6 N 1025,4 23 0,0
14.09.2019 19:00:00 26,4 15,1 26,5 19,4 18,1 3 2 17 9 NE 1024,6 60 0,0
14.09.2019 18:00:00 27,0 15,1 32,1 19,2 18,1 8 4 15 8 N 1024,6 60 0,0
14.09.2019 17:00:00 26,5 14,3 31,9 19,0 18,1 3 1 19 10 NNE 1024,9 14 0,0
14.09.2019 16:00:00 26,6 14,7 39,2 18,8 18,1 11 6 20 11 N 1025,2 60 0,0
14.09.2019 15:00:00 25,8 15,2 37,2 18,6 18,1 9 5 21 11 N 1025,7 58 0,0
14.09.2019 14:00:00 26,0 14,8 42,7 18,4 18,1 8 4 21 11 N 1026,0 60 0,0
14.09.2019 13:00:00 26,0 13,5 38,6 18,3 18,1 2 1 9 5 SO 1026,6 60 0,0
14.09.2019 12:00:00 24,0 14,1 35,0 18,3 18,1 3 2 14 8 SE 1027,7 60 0,0
14.09.2019 11:00:00 22,2 14,3 26,8 18,3 18,1 4 2 10 5 E 1028,3 53 0,0
14.09.2019 10:00:00 19,4 14,2 16,5 18,4 18,1 4 2 11 6 NNE 1028,7 46 0,0
14.09.2019 09:00:00 16,9 14,4 12,3 18,6 18,1 3 2 11 6 NNE 1028,9 36 0,0
14.09.2019 08:00:00 15,0 13,5 10,1 18,6 18,1 4 2 10 5 NNE 1028,9 0 0,0
14.09.2019 07:00:00 14,5 13,2 9,9 18,7 18,1 5 3 11 6 NNE 1028,4 0 0,0
14.09.2019 06:00:00 15,1 13,5 10,6 18,8 18,1 3 2 10 6 N 1028,1 0 0,0
14.09.2019 05:00:00 16,3 13,8 12,3 18,8 18,1 5 3 12 7 NNE 1028,2 0 0,0
14.09.2019 04:00:00 16,3 13,8 11,1 18,9 18,1 0 0 9 5 N 1028,6 0 0,0
14.09.2019 03:00:00 17,5 13,8 13,8 18,9 18,1 3 2 18 10 E 1028,7 0 0,0
14.09.2019 02:00:00 17,9 14,0 12,9 19,0 18,2 4 2 17 9 NNE 1028,9 0 0,0
14.09.2019 01:00:00 17,4 14,1 12,9 19,1 18,1 4 2 13 7 NNE 1029,5 0 0,0
14.09.2019 00:00:00 17,5 14,2 12,4 19,1 18,1 3 1 13 7 NNE 1029,7 0 0,0
13.09.2019 23:00:00 17,1 14,0 12,2 19,1 18,1 4 2 9 5 NNE 1029,8 0 0,0
13.09.2019 22:00:00 19,0 13,6 13,0 19,0 18,1 0 0 10 6 N 1029,8 0 0,0
13.09.2019 21:00:00 21,5 14,2 16,9 19,0 18,2 8 5 20 11 NNE 1029,1 0 0,0
13.09.2019 20:00:00 23,0 14,0 19,6 18,9 18,1 10 5 26 14 N 1028,6 24 0,0
13.09.2019 19:00:00 25,3 14,1 25,3 18,8 18,2 11 6 21 11 N 1028,4 60 0,0
13.09.2019 18:00:00 26,3 14,4 31,1 18,6 18,2 13 7 25 14 N 1028,3 60 0,0
13.09.2019 17:00:00 26,9 15,0 35,6 18,3 18,2 10 5 27 14 N 1028,3 60 0,0
13.09.2019 16:00:00 26,9 14,3 39,7 18,1 18,2 11 6 24 13 N 1028,8 60 0,0
13.09.2019 15:00:00 26,7 13,8 42,7 17,9 18,2 9 5 29 16 NNE 1029,2 60 0,0
13.09.2019 14:00:00 25,5 13,0 40,7 17,8 18,2 9 5 27 15 N 1029,7 60 0,0
13.09.2019 13:00:00 24,3 12,6 41,2 17,7 18,2 14 8 26 14 N 1030,1 60 0,0
13.09.2019 12:00:00 23,7 13,6 38,8 17,6 18,2 6 3 13 7 NNO 1030,5 60 0,0
13.09.2019 11:00:00 22,2 12,2 30,9 17,7 18,2 0 0 8 4 N 1031,2 60 0,0
13.09.2019 10:00:00 18,6 12,3 14,1 17,8 18,2 0 0 5 3 N 1031,6 60 0,0
13.09.2019 09:00:00 13,7 12,4 9,1 17,9 18,2 4 2 7 4 N 1031,7 40 0,0
13.09.2019 08:00:00 11,7 10,9 7,3 17,9 18,2 0 0 4 2 N 1032,1 0 0,0
13.09.2019 07:00:00 11,5 10,6 7,3 18,0 18,2 0 0 4 2 N 1032,2 0 0,0
13.09.2019 06:00:00 12,0 10,9 7,7 18,1 18,2 0 0 5 3 N 1032,1 0 0,0
13.09.2019 05:00:00 12,5 10,9 8,0 18,2 18,2 0 0 5 3 N 1032,1 0 0,0
13.09.2019 04:00:00 13,0 11,2 8,4 18,3 18,2 0 0 5 3 N 1031,7 0 0,0
13.09.2019 03:00:00 13,3 11,2 8,7 18,3 18,2 2 1 5 3 NNE 1031,7 0 0,0
13.09.2019 02:00:00 13,9 11,2 9,0 18,4 18,2 0 0 0 0 N 1032,0 0 0,0
13.09.2019 01:00:00 15,0 11,4 9,8 18,5 18,2 0 0 3 2 N 1031,7 0 0,0
13.09.2019 00:00:00 15,5 11,5 10,0 18,5 18,3 2 1 6 3 NNE 1031,8 0 0,0
12.09.2019 23:00:00 16,2 11,1 10,5 18,5 18,3 4 2 13 7 NNE 1031,6 0 0,0
12.09.2019 22:00:00 17,1 11,8 10,8 18,5 18,3 0 0 6 3 N 1031,3 0 0,0
12.09.2019 21:00:00 18,8 11,8 11,8 18,4 18,3 3 2 6 3 NNE 1030,9 0 0,0
12.09.2019 20:00:00 21,3 11,0 15,1 18,3 18,3 0 0 5 3 N 1030,2 27 0,0
12.09.2019 19:00:00 24,6 10,1 25,1 18,2 18,3 3 1 12 7 N 1029,8 60 0,0
12.09.2019 18:00:00 25,0 9,3 30,8 18,0 18,3 7 4 16 9 NNO 1029,6 60 0,0
12.09.2019 17:00:00 25,1 9,0 35,0 17,7 18,2 8 4 21 12 N 1029,6 60 0,0
12.09.2019 16:00:00 25,1 8,1 39,8 17,6 18,3 8 4 19 10 N 1030,0 60 0,0
12.09.2019 15:00:00 24,8 6,5 41,6 17,4 18,3 7 4 15 8 N 1030,4 60 0,0
12.09.2019 14:00:00 24,0 6,3 39,2 17,2 18,3 8 5 17 9 N 1030,7 60 0,0
12.09.2019 13:00:00 23,1 6,4 40,7 17,1 18,3 3 2 17 9 N 1031,0 60 0,0
12.09.2019 12:00:00 21,7 7,1 36,1 17,1 18,3 7 4 15 8 N 1031,4 60 0,0
12.09.2019 11:00:00 21,0 7,9 28,5 17,2 18,3 0 0 5 3 N 1031,3 60 0,0
12.09.2019 10:00:00 17,2 8,1 11,6 17,2 18,3 2 1 5 3 SE 1031,2 60 0,0
12.09.2019 09:00:00 11,3 8,2 6,8 17,4 18,3 0 0 5 3 N 1031,6 51 0,0
12.09.2019 08:00:00 9,6 7,5 4,7 17,5 18,3 5 3 6 3 NNE 1031,5 0 0,0
12.09.2019 07:00:00 9,0 7,1 4,7 17,6 18,3 3 1 6 3 NNE 1031,0 0 0,0
12.09.2019 06:00:00 9,1 7,4 4,6 17,7 18,4 3 2 5 3 NNE 1030,8 0 0,0
12.09.2019 05:00:00 9,5 7,6 4,8 17,8 18,4 0 0 4 2 N 1030,6 0 0,0
12.09.2019 04:00:00 9,5 7,6 4,8 17,9 18,3 2 1 5 3 NE 1030,4 0 0,0
12.09.2019 03:00:00 9,9 7,7 5,5 18,0 18,3 0 0 6 3 N 1030,2 0 0,0
12.09.2019 02:00:00 10,5 7,9 5,7 18,1 18,4 0 0 5 3 N 1029,9 0 0,0
12.09.2019 01:00:00 11,1 8,1 6,2 18,2 18,4 0 0 2 1 N 1029,4 0 0,0
12.09.2019 00:00:00 12,0 7,9 6,9 18,3 18,4 2 1 6 4 NE 1029,0 0 0,0
11.09.2019 23:00:00 12,9 8,6 7,3 18,3 18,4 0 0 3 2 N 1028,7 0 0,0
11.09.2019 22:00:00 14,6 8,3 8,4 18,3 18,4 0 0 5 3 N 1028,1 0 0,0
11.09.2019 21:00:00 17,0 6,2 11,0 18,2 18,4 0 0 5 3 N 1027,4 0 0,0
11.09.2019 20:00:00 18,8 6,9 15,6 18,1 18,4 0 0 4 2 N 1026,3 5 0,0
11.09.2019 19:00:00 20,4 6,0 19,9 18,1 18,4 0 0 6 4 N 1025,9 20 0,0
11.09.2019 18:00:00 22,0 5,0 27,6 17,9 18,4 3 1 10 6 ENE 1025,5 49 0,0
11.09.2019 17:00:00 20,7 4,7 28,6 17,7 18,4 8 4 16 9 N 1025,3 50 0,0
11.09.2019 16:00:00 21,1 5,8 30,0 17,6 18,4 5 3 17 9 O 1025,2 23 0,0
11.09.2019 15:00:00 21,1 8,7 28,6 17,4 18,5 5 3 14 8 OSO 1025,1 26 0,0
11.09.2019 14:00:00 19,5 10,2 26,1 17,3 18,4 4 2 15 8 ONO 1025,1 6 0,0
11.09.2019 13:00:00 18,7 10,3 26,7 17,2 18,4 6 4 14 8 ONO 1025,2 0 0,0
11.09.2019 12:00:00 18,1 10,0 24,4 17,2 18,5 5 3 11 6 ONO 1024,9 1 0,0
11.09.2019 11:00:00 17,2 10,1 21,8 17,2 18,5 2 1 7 4 OSO 1024,7 21 0,0
11.09.2019 10:00:00 15,1 8,8 13,0 17,3 18,5 2 1 6 4 N 1024,8 27 0,0
11.09.2019 09:00:00 11,3 9,2 9,1 17,4 18,5 0 0 3 2 N 1024,2 12 0,0
11.09.2019 08:00:00 9,3 8,2 5,0 17,5 18,5 0 0 4 2 N 1024,2 30 0,0
11.09.2019 07:00:00 8,4 7,3 4,1 17,7 18,5 4 2 7 4 NNE 1023,6 0 0,0
11.09.2019 06:00:00 8,4 7,2 4,0 17,7 18,5 0 0 5 3 N 1023,1 0 0,0
11.09.2019 05:00:00 9,1 7,5 3,9 17,8 18,5 3 1 4 2 N 1022,2 0 0,0
11.09.2019 04:00:00 9,4 7,8 4,1 17,9 18,5 0 0 5 3 N 1021,9 0 0,0
11.09.2019 03:00:00 10,7 7,9 5,2 18,0 18,6 0 0 2 1 N 1021,4 0 0,0
11.09.2019 02:00:00 11,1 8,0 5,8 18,1 18,6 0 0 10 5 N 1021,5 0 0,0
11.09.2019 01:00:00 12,7 8,0 7,2 18,2 18,6 0 0 12 6 N 1020,5 0 0,0
11.09.2019 00:00:00 12,6 7,9 7,2 18,2 18,6 2 1 10 6 N 1020,4 0 0,0
10.09.2019 23:00:00 13,6 8,0 8,2 18,3 18,6 5 3 8 4 N 1019,7 0 0,0
10.09.2019 22:00:00 15,0 7,5 9,2 18,2 18,6 0 0 6 3 N 1019,2 0 0,0
10.09.2019 21:00:00 16,1 7,3 10,4 18,2 18,6 0 0 16 9 N 1018,6 0 0,0
10.09.2019 20:00:00 18,5 6,7 15,1 18,2 18,6 11 6 21 11 N 1017,4 0 0,0
10.09.2019 19:00:00 20,2 7,2 19,1 18,0 18,6 9 5 22 12 N 1016,6 52 0,0
10.09.2019 18:00:00 21,6 7,0 25,7 17,9 18,6 8 5 20 11 NNE 1015,8 60 0,0
10.09.2019 17:00:00 21,9 4,4 31,3 17,7 18,6 10 5 23 12 N 1015,5 60 0,0
10.09.2019 16:00:00 21,6 5,5 34,7 17,6 18,7 9 5 24 13 N 1015,3 60 0,0
10.09.2019 15:00:00 21,0 6,5 33,4 17,4 18,6 10 5 23 12 NNO 1015,3 58 0,0
10.09.2019 14:00:00 20,3 8,6 33,8 17,2 18,7 8 5 20 11 N 1015,4 60 0,0
10.09.2019 13:00:00 19,0 8,3 32,8 17,2 18,7 11 6 24 13 N 1015,5 60 0,0
10.09.2019 12:00:00 18,2 9,3 32,2 17,2 18,7 7 4 15 8 NNO 1015,4 60 0,0
10.09.2019 11:00:00 16,2 8,4 26,5 17,2 18,7 6 3 14 8 N 1015,7 60 0,0
10.09.2019 10:00:00 14,0 8,2 12,6 17,3 18,7 3 2 13 7 N 1015,7 58 0,0
10.09.2019 09:00:00 10,5 7,9 7,0 17,4 18,7 6 3 12 7 NNE 1015,1 55 0,0
10.09.2019 08:00:00 8,6 7,4 5,1 17,5 18,7 0 0 7 4 N 1015,4 0 0,0
10.09.2019 07:00:00 8,7 7,3 5,2 17,6 18,7 0 0 4 2 N 1014,6 0 0,0
10.09.2019 06:00:00 9,8 7,6 6,7 17,7 18,8 0 0 5 3 N 1013,9 0 0,0
10.09.2019 05:00:00 10,3 7,5 7,5 17,7 18,7 0 0 11 6 N 1014,0 0 0,0
10.09.2019 04:00:00 10,8 7,5 8,5 17,8 18,8 8 4 12 7 NNE 1014,0 0 0,0
10.09.2019 03:00:00 11,1 7,6 8,8 17,8 18,8 0 0 6 3 N 1014,9 0 0,0
10.09.2019 02:00:00 11,1 7,6 9,4 17,9 18,8 0 0 4 2 N 1015,3 0 0,0
10.09.2019 01:00:00 11,3 7,4 9,6 18,0 18,8 0 0 3 2 N 1015,5 0 0,0
10.09.2019 00:00:00 11,2 7,1 8,9 18,0 18,8 2 1 4 2 NE 1015,5 0 0,0
09.09.2019 23:00:00 10,9 7,2 8,5 18,1 18,8 0 0 5 3 N 1015,4 0 0,0
09.09.2019 22:00:00 11,4 7,5 8,4 18,1 18,8 2 1 6 3 NNE 1015,4 0 0,0
09.09.2019 21:00:00 12,5 7,2 8,4 18,1 18,8 2 1 4 2 NNE 1015,2 0 0,0

tt = Temperatura
td = dewpoint
tt 5cm = Temperatura 5cm
tt -20cm = Temperatura -20cm
tt -100cm = Temperatura -100cm
ff = velocità del vento
fx = gusts
dd = direzione del vento
ppp = reduced air pressure
sd = ore di luce
rr = precipitazioni

Stazioni seguenti

WeatherPro
AMSI
MeteoEarth